PulseSat

PulseSat

MOLNIYA 3-42

Last updated on April 19, 2019, 2:59 a.m. UTC

1 22178U 92067A   19107.53034958 -.00000041  00000-0  00000-0 0  9995
2 22178  64.5701 355.4176 6876181 282.3929  13.8758  2.20432643199016
UTC
Height (km)
Latitude
Longitude
Inclination
Orbital Period

Next 30 passes for location: Hong Kong

Rise time Rise Azimuth (degrees) Set time Set Azimuth (degrees) Duration Max altitude (degrees)

No matching passes for this satellites

PulseSat

PulseSat is the new satellites software and hardware trackering solution by Pulsely.
Satellite Two Line Element Set source: US Air Force Space Command

Download PulseSat for iOS
© 2017 Pulsely Limited